TimeCDT,TemperatureF,Dew PointF,Humidity,Sea Level PressureIn,VisibilityMPH,Wind Direction,Wind SpeedMPH,Gust SpeedMPH,PrecipitationIn,Events,Conditions,WindDirDegrees,DateUTC
12:05 AM,68.0,64.4,88,29.91,10.0,NE,8.1,-,N/A,,Mostly Cloudy,40,2013-06-24 05:05:00
12:53 AM,68.0,64.9,90,29.82,10.0,ENE,6.9,-,N/A,,Overcast,60,2013-06-24 05:53:00
1:12 AM,68.0,64.4,88,29.89,10.0,ENE,5.8,-,N/A,,Overcast,60,2013-06-24 06:12:00
1:34 AM,68.0,64.4,88,29.87,9.0,ENE,10.4,-,N/A,Thunderstorm,Overcast,70,2013-06-24 06:34:00
1:50 AM,68.0,66.2,94,29.88,4.0,East,9.2,-,N/A,,Overcast,80,2013-06-24 06:50:00
1:53 AM,68.0,66.0,93,29.79,3.0,East,8.1,-,N/A,,Overcast,90,2013-06-24 06:53:00
2:00 AM,68.0,66.2,94,29.88,2.0,East,6.9,-,0.00,Rain,Light Rain,100,2013-06-24 07:00:00
2:09 AM,68.0,66.2,94,29.88,3.0,East,3.5,-,0.00,Thunderstorm,Overcast,100,2013-06-24 07:09:00
2:30 AM,62.6,57.2,82,29.95,1.8,West,5.8,18.4,0.07,Rain-Thunderstorm,Heavy Thunderstorms and Rain,280,2013-06-24 07:30:00
2:41 AM,62.6,57.2,82,29.93,2.0,WSW,17.3,29.9,0.18,Rain-Thunderstorm,Heavy Thunderstorms and Rain,250,2013-06-24 07:41:00
2:53 AM,63.0,57.9,84,29.90,3.0,SW,18.4,35.7,0.30,Rain-Thunderstorm,Heavy Thunderstorms and Rain,230,2013-06-24 07:53:00
3:53 AM,63.0,57.9,84,29.86,6.0,NW,16.1,-,0.15,Rain,Rain,320,2013-06-24 08:53:00
4:53 AM,64.0,57.0,78,29.76,10.0,NNW,12.7,-,0.02,,Partly Cloudy,340,2013-06-24 09:53:00
5:53 AM,62.1,57.0,84,29.77,10.0,West,4.6,-,N/A,,Clear,280,2013-06-24 10:53:00
6:53 AM,62.1,57.9,86,29.73,9.0,SSW,5.8,-,N/A,,Partly Cloudy,200,2013-06-24 11:53:00
7:53 AM,63.0,57.9,84,29.71,10.0,Calm,Calm,-,N/A,,Clear,0,2013-06-24 12:53:00
8:53 AM,64.9,57.9,78,29.76,10.0,Calm,Calm,-,N/A,,Clear,0,2013-06-24 13:53:00
9:53 AM,69.1,60.1,73,29.78,10.0,Calm,Calm,-,N/A,,Clear,0,2013-06-24 14:53:00
10:53 AM,75.0,62.1,64,29.76,10.0,SSW,10.4,-,N/A,,Clear,200,2013-06-24 15:53:00
11:53 AM,77.0,63.0,62,29.74,10.0,Calm,Calm,-,N/A,,Clear,0,2013-06-24 16:53:00
12:53 PM,81.0,64.0,56,29.73,10.0,SSE,6.9,-,N/A,,Clear,150,2013-06-24 17:53:00
1:53 PM,82.9,64.0,53,29.71,10.0,ESE,6.9,-,N/A,,Clear,110,2013-06-24 18:53:00
2:53 PM,84.9,66.0,53,29.69,10.0,SE,6.9,-,N/A,,Clear,130,2013-06-24 19:53:00
3:53 PM,86.0,64.9,49,29.67,10.0,ESE,8.1,-,N/A,,Clear,110,2013-06-24 20:53:00
4:53 PM,84.9,68.0,57,29.65,10.0,East,9.2,-,N/A,,Clear,100,2013-06-24 21:53:00
5:53 PM,84.9,68.0,57,29.64,10.0,East,10.4,-,N/A,,Clear,90,2013-06-24 22:53:00
6:53 PM,82.9,69.1,63,29.62,10.0,ESE,10.4,-,N/A,,Clear,110,2013-06-24 23:53:00
7:53 PM,82.0,69.1,65,29.62,10.0,East,8.1,-,N/A,,Clear,90,2013-06-25 00:53:00
8:53 PM,78.1,69.1,74,29.62,10.0,ENE,9.2,-,N/A,,Clear,70,2013-06-25 01:53:00
9:53 PM,73.9,69.1,85,29.62,10.0,East,8.1,-,N/A,,Clear,80,2013-06-25 02:53:00
10:53 PM,72.0,68.0,87,29.64,10.0,East,5.8,-,N/A,,Clear,100,2013-06-25 03:53:00
11:53 PM,70.0,68.0,93,29.64,9.0,East,5.8,-,N/A,,Clear,80,2013-06-25 04:53:00